Location: Peterborough
(44.3091°N, 78.3197°W)
Time: 07:25:07
(UTC-04:00)

Vanguard 2 - Pass Details

Date: 30 March 2023
Orbit: 552 x 2926 km, 32.9° (Epoch: 04 June)

Event Time Altitude Azimuth Distance (km) Brightness Sun altitude
Rises 07:58:03 0° 259° (W) 6,764 11.7 9.8°
Reaches altitude 10° 08:02:45 10° 256° (WSW) 5,746 11.4 10.7°
Maximum altitude 08:19:17 53° 187° (S) 2,928 10.7 13.6°
Drops below altitude 10° 08:31:16 10° 115° (ESE) 4,265 13.3 15.7°
Sets 08:34:12 0° 110° (ESE) 4,976 13.4 16.2°
